CW2927 Weather Reports


time (UTC)temp
F
wind
direction
speed
knots
gust
knots
rain 1hr
in
rain 24hr
in
rain mn
in
humidity
%
barometer
mb
20260506032705 54 188 3.5 8.7 0.00 0.23 0.23 78 1005.6
20260506032204 54 218 2.6 7.8 0.01 0.23 0.23 78 1005.5
20260506030705 54 223 3.5 12.2 0.01 0.23 0.23 77 1005.5
20260506030205 54 222 6.1 13.0 0.01 0.23 0.23 77 1005.5
20260506024705 55 243 3.5 13.0 0.01 0.23 0.23 77 1005.5
20260506024205 55 227 4.3 15.6 0.01 0.23 0.23 77 1005.3
20260506022705 56 243 3.5 13.9 0.01 0.23 0.23 76 1005.2
20260506022205 56 252 5.2 13.9 0.00 0.22 0.22 75 1005.1
20260506020705 57 229 4.3 13.0 0.00 0.22 0.22 75 1004.8
20260506020205 57 241 2.6 13.0 0.00 0.22 0.22 75 1004.6
20260506014705 59 285 6.1 13.9 0.00 0.22 0.22 71 1004.5
20260506014204 60 287 4.3 11.3 0.00 0.22 0.22 70 1004.4
20260506012705 60 242 3.5 7.0 0.00 0.22 0.22 70 1003.9
20260506012205 60 248 2.6 6.1 0.00 0.22 0.22 71 1003.6
20260506010705 61 254 2.6 6.1 0.00 0.22 0.22 71 1003.4
20260506010205 61 245 3.5 7.8 0.00 0.22 0.22 71 1003.2
20260506004704 61 221 2.6 5.2 0.00 0.22 0.22 69 1003.0
20260506004205 62 211 2.6 6.1 0.00 0.22 0.22 69 1002.8
20260506002704 62 244 2.6 7.0 0.00 0.22 0.22 70 1002.6
20260506002205 62 232 2.6 10.4 0.00 0.22 0.22 71 1002.6
20260506000705 62 221 2.6 7.8 0.00 0.22 0.22 75 1002.4
20260506000205 62 246 2.6 6.1 0.00 0.22 0.22 78 1002.3
20260505234705 62 182 2.6 5.2 0.00 0.22 0.22 79 1002.0
20260505234205 63 186 4.3 7.8 0.00 0.22 0.22 79 1001.9
20260505232705 63 182 4.3 7.0 0.00 0.22 0.22 74 1001.6
20260505232205 63 185 4.3 7.8 0.00 0.22 0.22 73 1001.5
20260505230705 64 276 2.6 5.2 0.00 0.22 0.22 72 1001.1
20260505230204 64 205 2.6 6.1 0.00 0.22 0.22 72 1001.0
20260505224705 64 226 2.6 6.1 0.00 0.22 0.22 73 1001.0
20260505224205 64 232 3.5 8.7 0.00 0.22 0.22 73 1000.9
20260505222704 64 197 2.6 5.2 0.00 0.22 0.22 73 1000.7
20260505222204 64 218 2.6 7.0 0.00 0.22 0.22 73 1000.6
20260505220704 64 221 2.6 6.1 0.00 0.22 0.22 76 1000.3
20260505220204 64 209 2.6 11.3 0.00 0.22 0.22 77 1000.2
20260505214704 65 206 2.6 8.7 0.00 0.22 0.22 75 1000.2
20260505214205 65 202 3.5 12.2 0.00 0.22 0.22 74 999.8
20260505212704 66 202 7.8 14.8 0.00 0.22 0.22 73 999.6
20260505212205 66 201 4.3 13.0 0.00 0.22 0.22 73 999.3
20260505210704 66 212 5.2 7.0 0.00 0.22 0.22 72 998.9
20260505210205 66 214 4.3 11.3 0.00 0.22 0.22 72 998.8
20260505204704 67 223 6.1 12.2 0.00 0.22 0.22 72 998.6
20260505204204 66 215 5.2 14.8 0.00 0.22 0.22 72 998.6
20260505202704 66 202 7.8 17.4 0.00 0.22 0.22 72 998.6
20260505202205 66 197 5.2 15.6 0.00 0.22 0.22 72 998.6
20260505200704 67 178 6.1 14.8 0.00 0.22 0.22 72 998.5
20260505200204 67 182 5.2 17.4 0.00 0.22 0.22 72 998.6
20260505194705 68 205 5.2 12.2 0.00 0.22 0.22 70 998.6
20260505194205 68 221 6.1 15.6 0.00 0.22 0.22 71 998.6
20260505192704 68 184 6.1 13.9 0.00 0.22 0.22 72 998.5
20260505192205 67 183 4.3 13.0 0.00 0.22 0.22 73 998.4
20260505190705 65 189 4.3 12.2 0.00 0.22 0.22 76 998.4
20260505190205 65 171 7.8 14.8 0.00 0.22 0.22 75 998.4
20260505184704 65 172 4.3 10.4 0.00 0.22 0.22 77 998.8
20260505184204 65 188 5.2 14.8 0.00 0.22 0.22 76 998.9
20260505182704 65 191 4.3 13.0 0.03 0.22 0.22 79 998.6
20260505182204 65 192 5.2 12.2 0.05 0.22 0.22 81 998.5
20260505180705 63 194 4.3 8.7 0.11 0.22 0.22 86 998.6
20260505180204 63 196 2.6 15.6 0.14 0.22 0.22 87 998.5
20260505174705 61 192 2.6 4.3 0.15 0.22 0.22 91 998.6
20260505174204 60 192 1.7 7.0 0.15 0.22 0.22 90 998.7
20260505172704 60 244 3.5 11.3 0.12 0.19 0.19 88 999.0
20260505172204 61 230 2.6 13.9 0.10 0.17 0.17 87 999.2
20260505170704 64 241 5.2 13.9 0.04 0.11 0.11 77 999.1
20260505170204 66 202 4.3 12.2 0.01 0.08 0.08 72 998.6
20260505164704 67 197 4.3 10.4 0.00 0.07 0.07 65 998.2
20260505164204 68 196 3.5 12.2 0.00 0.07 0.07 66 998.3
20260505162705 68 188 3.5 11.3 0.00 0.07 0.07 64 998.5
20260505162206 68 200 5.2 14.8 0.00 0.07 0.07 64 998.5
20260505160705 68 180 5.2 13.0 0.00 0.07 0.07 64 998.6
20260505160205 68 163 7.8 15.6 0.00 0.07 0.07 64 998.7
20260505152704 67 179 5.2 13.0 0.00 0.07 0.07 68 999.5
20260505152204 66 175 4.3 17.4 0.00 0.07 0.07 69 999.5
20260505150704 66 169 6.1 14.8 0.00 0.07 0.07 71 999.5
20260505150204 65 166 7.8 17.4 0.00 0.07 0.07 72 999.6
20260505140204 56 159 4.3 13.9 0.07 0.08 0.07 88 1000.5
20260505130204 62 195 5.2 15.6 0.00 0.11 0.00 67 1000.9
20260505124704 64 226 5.2 13.0 0.00 0.16 0.00 62 1000.5
20260505124204 64 188 6.1 13.9 0.00 0.17 0.00 60 1000.4
20260505122704 64 186 4.3 14.8 0.00 0.22 0.00 59 1000.2
20260505122204 65 176 6.1 17.4 0.00 0.24 0.00 59 1000.3
20260505120704 64 171 7.8 18.2 0.00 0.27 0.00 58 1000.2
20260505120204 63 173 4.3 12.2 0.00 0.28 0.00 60 1000.2
20260505114704 61 161 4.3 10.4 0.00 0.30 0.00 62 1000.3
20260505114205 61 163 6.1 13.0 0.00 0.30 0.00 63 1000.2
20260505112704 58 138 1.7 6.1 0.00 0.31 0.00 65 1000.4
20260505112204 58 142 2.6 7.0 0.00 0.31 0.00 66 1000.5
20260505110704 58 155 4.3 7.8 0.00 0.31 0.00 66 1000.4
20260505110204 57 154 4.3 7.0 0.00 0.31 0.00 66 1000.4
20260505102204 55 148 2.6 6.1 0.00 0.31 0.00 69 1000.4
20260505100703 54 144 1.7 5.2 0.00 0.31 0.00 70 1000.4
20260505100204 54 146 1.7 6.1 0.00 0.31 0.00 70 1000.5
20260505094704 53 148 2.6 5.2 0.00 0.31 0.00 71 1000.4
20260505094204 53 140 2.6 5.2 0.00 0.31 0.00 71 1000.3
20260505092204 52 142 1.7 7.0 0.00 0.31 0.00 73 1000.4
20260505090704 50 138 2.6 5.2 0.00 0.31 0.00 76 1000.5
20260505090204 50 130 1.7 5.2 0.00 0.31 0.00 76 1000.5
20260505084704 51 140 1.7 2.6 0.00 0.31 0.00 75 1000.6
20260505084204 51 140 1.7 2.6 0.00 0.31 0.00 74 1000.7
20260505082704 52 141 2.6 4.3 0.00 0.31 0.00 74 1000.8
20260505082204 52 141 1.7 5.2 0.00 0.31 0.00 74 1000.7
20260505080704 51 135 1.7 4.3 0.00 0.31 0.00 75 1000.7
20260505080204 51 132 1.7 7.0 0.00 0.31 0.00 76 1000.7
20260505074705 51 131 2.6 4.3 0.00 0.31 0.00 76 1000.7
20260505074205 51 132 1.7 4.3 0.00 0.31 0.00 75 1000.7
20260505072705 51 145 1.7 2.6 0.00 0.31 0.00 75 1000.8
20260505072205 51 147 1.7 4.3 0.00 0.31 0.00 75 1000.9
20260505070705 52 154 2.6 4.3 0.00 0.31 0.00 74 1000.9
20260505070205 52 155 1.7 4.3 0.00 0.31 0.00 74 1000.9
20260505064706 53 161 1.7 6.1 0.00 0.31 0.00 73 1001.0
20260505064205 53 157 3.5 6.1 0.00 0.31 0.00 73 1001.0
20260505062705 52 145 2.6 5.2 0.00 0.31 0.00 74 1001.0
20260505062205 52 152 2.6 4.3 0.00 0.31 0.00 74 1001.1
20260505060705 52 145 2.6 6.1 0.00 0.31 0.00 75 1001.1
20260505060205 52 150 2.6 5.2 0.00 0.31 0.00 75 1001.2
20260505054705 51 144 2.6 4.3 0.00 0.31 0.00 78 1001.2
20260505054205 51 136 1.7 5.2 0.00 0.31 0.00 79 1001.2
20260505052705 50 117 1.7 4.3 0.00 0.31 0.00 81 1001.4
20260505052205 50 116 1.7 4.3 0.00 0.31 0.00 81 1001.4
20260505050705 50 104 1.7 4.3 0.00 0.31 0.00 82 1001.6
20260505050205 50 103 1.7 2.6 0.00 0.31 0.00 82 1001.6
20260505040705 49 90 0.9 2.6 0.00 0.31 0.00 84 1002.0
20260505040204 50 90 0.9 2.6 0.00 0.31 0.00 84 1002.0
20260505034705 50 90 0.9 2.6 0.00 0.31 0.31 84 1002.0
20260505034205 51 90 0.9 2.6 0.00 0.31 0.31 84 1002.0